Weather History for Seretse Khama, Botswana

Change the Weather History Date:

Thursday, March 28, 2013

  Actual Average Record
Temperature  
Mean Temperature 73 °F -  
Max Temperature 86 °F 79 °F 91 °F (2002)
Min Temperature 60 °F 56 °F 59 °F (2002)
Cooling Degree Days 8    
Growing Degree Days 23 (Base 50)    
Moisture  
Dew Point 52 °F    
Average Humidity 51    
Maximum Humidity 77    
Minimum Humidity 27    
Precipitation  
Precipitation 0.00 in - - ()
Sea Level Pressure  
Sea Level Pressure 30.17 in    
Wind  
Wind Speed 6 mph ()    
Max Wind Speed 12 mph    
Max Gust Speed -    
Visibility 6.2 miles    
Events      
Averages and records for this station are not official NWS values.
T = Trace of Precipitation, MM = Missing Value Source: Averaged Metar Reports

Daily Weather History Graph

Daily Weather History Graph

Search for Another Location

Airport:

Trip Planner

Search our weather history database for the weather conditions in past years. The results will help you decide how hot, cold, wet, or windy it might be!

Date:

Astronomy

Mar. 28, 2013 Rise Set
Actual Time 6:23 AM CAT 6:19 PM CAT
Civil Twilight 6:00 AM CAT 6:41 PM CAT
Nautical Twilight 5:34 AM CAT 7:08 PM CAT
Astronomical Twilight 5:07 AM CAT 7:34 PM CAT
Moon 7:01 PM CAT (3/28) 7:14 AM CAT (3/28)
Length of Visible Light 12h 41m
Length of Day
11h 55m
Full, 99% of the Moon is Illuminated
Mar 28
Full
Apr 3
Last Quarter
Apr 10
New
Apr 18
First Quarter
Apr 25
Full

Hourly Weather History & Observations

Time (CAT) Temp. Dew Point Humidity Pressure Visibility Wind Dir Wind Speed Gust Speed Precip Events Conditions
12:00 AM 66.2 °F 55.4 °F 68% 30.15 in - SSE 6.9 mph - N/A   Clear
1:00 AM 64.4 °F 55.4 °F 73% 30.15 in - SSE 3.5 mph - N/A   Clear
2:00 AM 64.4 °F 55.4 °F 73% 30.18 in - SE 6.9 mph - N/A   Clear
3:00 AM 64.4 °F 53.6 °F 68% 30.18 in - East 8.1 mph - N/A   Clear
4:00 AM 62.6 °F 53.6 °F 72% 30.18 in - ESE 5.8 mph - N/A   Clear
5:00 AM 60.8 °F 53.6 °F 77% 30.18 in - SE 6.9 mph - N/A   Clear
6:00 AM 60.8 °F 51.8 °F 72% 30.21 in - SE 5.8 mph - N/A   Clear
7:00 AM 60.8 °F 51.8 °F 72% 30.21 in - ESE 3.5 mph - N/A   Clear
8:00 AM 66.2 °F 53.6 °F 64% 30.21 in - NE 6.9 mph - N/A   Clear
9:00 AM 71.6 °F 53.6 °F 53% 30.24 in - NE 10.4 mph - N/A   Clear
10:00 AM 73.4 °F 53.6 °F 50% 30.24 in - NE 11.5 mph - N/A   Clear
11:00 AM 77.0 °F 53.6 °F 44% 30.24 in - NNE 10.4 mph - N/A   Clear
12:00 PM 80.6 °F 51.8 °F 37% 30.21 in 6.2 mi NE 9.2 mph - N/A   Partly Cloudy
1:00 PM 82.4 °F 50.0 °F 32% 30.18 in 6.2 mi ENE 11.5 mph - N/A   Partly Cloudy
2:00 PM 84.2 °F 50.0 °F 30% 30.15 in 6.2 mi Variable 4.6 mph - N/A   Partly Cloudy
3:00 PM 86.0 °F 48.2 °F 27% 30.12 in 6.2 mi Variable 3.5 mph - N/A   Partly Cloudy
4:00 PM 84.2 °F 48.2 °F 29% 30.12 in 6.2 mi ESE 5.8 mph - N/A   Scattered Clouds
5:00 PM 86.0 °F 48.2 °F 27% 30.09 in 6.2 mi NE 5.8 mph - N/A   Scattered Clouds
6:00 PM 84.2 °F 48.2 °F 29% 30.12 in 6.2 mi ENE 3.5 mph - N/A   Partly Cloudy
8:00 PM 77.0 °F 48.2 °F 36% 30.12 in - ENE 5.8 mph - N/A   Clear
9:00 PM 73.4 °F 50.0 °F 44% 30.15 in - NE 5.8 mph - N/A   Clear
10:00 PM 71.6 °F 50.0 °F 46% 30.15 in - NE 5.8 mph - N/A   Clear
11:00 PM 71.6 °F 50.0 °F 46% 30.15 in - East 5.8 mph - N/A   Clear